Epoch 2024 Oct. 17.0 TT = JDT 2460600.5 T 2025 Mar. 19.30043 TT Veres q 2.5594232 (2000.0) P Q z +0.0229903 Peri. 256.80298 -0.23624914 +0.61474784 +/-0.0051772 Node 310.72647 +0.47433479 -0.60293035 e 0.9411580 Incl. 83.20514 -0.84805239 -0.50848803 From 20 observations 2024 Nov. 22-Dec. 6, mean residual 0".3.
m1 = 12.0 + 5 logΔ + 10.0 log r